Location: Unspecified
(45.0051°N, 0.0000°E)
Time: 09:50:07
(UTC+00:00)

Cosmos 2034 Rocket - Visible Passes

Search period start: 04 April 2026 00:00
Search period end: 14 April 2026 00:00
Orbit: 958 x 999 km, 82.9° (Epoch: 29 March)

Date Brightness Start Highest point End Pass type
(mag) Time Alt. Az. Time Alt. Az. Time Alt. Az.
4 Apr 4.5 02:27:21 44° SE 02:28:46 53° E 02:34:54 10° NNE visible
4 Apr 5.0 04:12:05 21° WSW 04:14:35 27° WNW 04:19:49 10° NNW visible
5 Apr 6.2 01:08:55 14° E 01:10:28 15° ENE 01:13:50 10° NE visible
5 Apr 3.9 02:53:40 59° S 02:54:57 88° W 03:01:19 10° N visible
5 Apr 5.6 04:38:23 11° W 04:41:24 15° WNW 04:45:00 10° NNW visible
6 Apr 5.5 01:35:12 26° E 01:36:15 27° E 01:41:25 10° NNE visible
6 Apr 4.2 03:19:56 43° WSW 03:21:20 51° WNW 03:27:29 10° N visible
7 Apr 4.6 02:01:28 46° ESE 02:02:13 48° E 02:08:15 10° NNE visible
7 Apr 4.9 03:46:12 26° W 03:47:54 29° WNW 03:53:21 10° N visible
8 Apr 6.3 00:42:59 13° E 00:43:59 13° ENE 00:46:49 10° NE visible
8 Apr 3.9 02:27:43 73° SSE 02:28:22 85° E 02:34:44 10° N visible
8 Apr 5.5 04:12:26 14° W 04:14:41 17° WNW 04:18:42 10° NNW visible
9 Apr 5.6 01:09:12 24° E 01:09:43 25° E 01:14:40 10° NNE visible
9 Apr 4.1 02:53:56 53° WSW 02:54:42 56° WNW 03:00:56 10° N visible
10 Apr 4.8 01:35:25 43° E 01:35:40 43° E 01:41:36 10° NNE visible
10 Apr 4.8 03:20:09 31° W 03:21:14 32° WNW 03:26:52 10° N visible
11 Apr 6.3 00:16:53 12° E 00:17:30 12° ENE 00:19:40 10° NE visible
11 Apr 4.0 02:01:37 76° ESE 02:01:46 77° E 02:08:08 10° N visible
11 Apr 5.4 03:46:21 17° W 03:47:59 19° WNW 03:52:21 10° NNW visible
12 Apr 5.7 00:43:04 22° E 00:43:13 22° E 00:47:55 10° NE visible
12 Apr 4.0 02:27:47 61° W 02:28:05 62° W 02:34:24 10° N visible
12 Apr 6.0 04:13:44 10° WNW 04:14:57 11° WNW 04:16:11 10° NW visible
13 Apr 4.9 01:09:14 39° E 01:09:14 39° E 01:14:56 10° NNE visible
13 Apr 4.7 02:53:57 35° W 02:54:35 36° WNW 03:00:23 10° N visible
13 Apr 6.4 23:50:39 10° ENE 23:51:01 10° ENE 23:52:07 10° ENE visible
